sat.trackr.live / text

‹ back to catalog

STARLINK-35820

NORAD 66597 · 2025-270K

PAYLOAD ACTIVE UNKNOWN

§ Identity

Operator
Country
US
Launch date
2025-11-22
Launch site
AFETR
Launch vehicle
Mass (kg)
RCS (m²)

Purposes: comms

External: N2YO · Heavens-Above · Gunter

§ Orbital elements

Epoch: 2026-05-24T23:42:49.574592Z

Period
94.27 min
Inclination
43.0027°
Eccentricity
0.0001438
Mean motion
15.27594524 rev/d
Perigee alt
482.0 km
Apogee alt
484.0 km
Semi-major
6,861.1 km
B*
1.1196e-3
RAAN
345.3841°
Arg perigee
273.6511°
Mean anomaly
86.4176°
Rev number
2,948

§ Raw data

STARLINK-358201 66597U 25270K   26144.98807378  .00030688  00000+0  11196-2 0  99902 66597  43.0027 345.3841 0001438 273.6511  86.4176 15.27594524 29489

JSON: /api/v1/satellites/66597 · /tle

For live sub-satellite position, see the globe view (requires WebGL).

§ Visibility from observer

Set your observer location to see the next 7 days of passes ≥ 10°. The values pass through the URL so the page stays shareable.

No JS? Fill the form by hand. The geolocation button needs JavaScript.